Content
SEND FEEDBACK

Daily
Averages
Monthly
Summary
United States of America

ST. LOUIS, MISSOURI


Home > North America > United States > Missouri
Elevation: 535 feet     Latitude: 38 45N     Longitude: 090 22W

WEATHER
 
SELECT A DAY
Number of Records: 196,588;   Date Range: 1/1/95 - 9/3/14
 
SHARE

PRINT THIS DATA

[ ← Previous Day ]
WEATHER ALMANAC - MARCH 16, 2013
[ Next Day → ]
[ °C ]   °F
Weather ElementAverageHighLow
Temperature46 °F66 °F (1:54 am)39 °F (10:54 pm)
Dewpoint37.5 °F46 °F (5:54 am)34 °F (4:54 pm)
Humidity73.7 %93 % (9:41 pm)43 % (1:54 am)
Barometer29.93 in30.07 in (10:54 pm)29.63 in (1:54 am)
Wind Speed9.3 mph17.3 mph (8:54 am)
Wind Gust24.2 mph (9:22 am)
Weather ElementAverage
Visibility6 mi
Wind DirectionSSE (165.9 °)

Weather ElementTotal
Precipitation0.08 in
Heating Degree Days12.5 (Base 65)
Growing Degree Days2.5 (Base 50)
Averaged from 32 records on March 16, 2013
WEATHER CONDITIONS BREAKOUT
WIND DIRECTION BREAKOUT
WEATHER BY HOUR - MARCH 16, 2013
[ °C ]   °F
Local TimeTemperatureDewpointHumidityBarometerVisibilityWind DirectionWind SpeedGust SpeedPrecipitationEventsConditions
1:54 AM66.0 °F43.0 °F43 %29.63 in10.0 miWSW (240°)12.7 mphClear
2:54 AM64.9 °F43.0 °F45 %29.63 in10.0 miWSW (240°)12.7 mphClear
3:54 AM64.0 °F43.0 °F46 %29.64 in10.0 miWSW (240°)11.5 mphClear
4:54 AM59.0 °F43.0 °F55 %29.68 in10.0 miWest (260°)9.2 mphClear
5:54 AM57.0 °F46.0 °F67 %29.72 in10.0 miNW (310°)10.4 mphClear
6:54 AM53.1 °F43.0 °F69 %29.77 in10.0 miWNW (300°)6.9 mphScattered Clouds
7:54 AM50.0 °F41.0 °F71 %29.82 in6.0 miNNW (330°)12.7 mph18.4 mphHaze
8:37 AM46.4 °F39.2 °F76 %29.86 in4.0 miNW (320°)13.8 mphHaze
8:54 AM46.0 °F37.9 °F73 %29.89 in4.0 miNorth (350°)17.3 mph23.0 mphHaze
9:22 AM42.8 °F35.6 °F76 %29.92 in2.5 miNW (320°)16.1 mph24.2 mphHaze
9:54 AM42.1 °F36.0 °F79 %29.94 in2.5 miNorth (350°)12.7 mphHaze
10:52 AM42.8 °F35.6 °F76 %29.94 in3.0 miNorth (350°)12.7 mphHaze
10:54 AM43.0 °F35.1 °F74 %29.95 in3.0 miNorth (10°)9.2 mphHaze
11:51 AM44.6 °F35.6 °F71 %29.96 in6.0 miNorth (10°)11.5 mph19.6 mphHaze
11:54 AM44.1 °F35.1 °F71 %29.97 in6.0 miNorth (10°)9.2 mphHaze
12:54 PM45.0 °F35.1 °F68 %30.01 in7.0 miNorth (360°)9.2 mphOvercast
1:54 PM46.0 °F35.1 °F66 %29.99 in6.0 miNorth (350°)9.2 mphHaze
2:54 PM45.0 °F35.1 °F68 %29.99 in6.0 miNNE (20°)8.1 mphHaze
3:54 PM45.0 °F35.1 °F68 %29.98 in6.0 miNE (40°)8.1 mphHaze
4:54 PM45.0 °F34.0 °F65 %30.02 in6.0 miNorth (360°)6.9 mphHaze
5:54 PM43.0 °F35.1 °F74 %30.02 in4.0 miNorth (10°)8.1 mph0.00 inRainLight Rain
6:49 PM41.0 °F35.6 °F81 %30.02 in4.0 miNNE (30°)9.2 mph0.01 inRainLight Rain
6:54 PM41.0 °F35.1 °F79 %30.03 in4.0 miNNE (20°)8.1 mph0.01 inRainLight Rain
7:54 PM39.9 °F36.0 °F86 %30.03 in4.0 miENE (60°)5.8 mph0.03 inRainLight Rain
8:54 PM39.9 °F37.0 °F89 %30.06 in4.0 miNE (50°)3.5 mph0.01 inRainLight Rain
9:41 PM39.2 °F37.4 °F93 %30.04 in4.0 miNE (50°)5.8 mph0.01 inRainLight Rain
9:54 PM39.9 °F37.0 °F89 %30.06 in5.0 miNE (40°)5.8 mph0.01 inOvercast
10:17 PM39.2 °F37.4 °F93 %30.05 in5.0 miENE (70°)5.8 mphOvercast
10:45 PM39.2 °F35.6 °F87 %30.05 in6.0 miENE (60°)4.6 mphOvercast
10:54 PM39.0 °F36.0 °F89 %30.07 in6.0 miNE (50°)5.8 mphOvercast
11:09 PM39.2 °F35.6 °F87 %30.04 in7.0 miNE (50°)8.1 mphOvercast
11:54 PM39.9 °F35.1 °F83 %30.06 in10.0 miNE (50°)8.1 mphOvercast
Hourly data recorded from KSUS, located miles away from St. Louis, Missouri







STORIES FROM OUR PARTNERS